Theta_e
357 358 361 366 368 368 367 367 368 369 369 368 368 367 366 366 366 366 367 366 365 365 365 366 366 367 367 367 367 367 367 367 366 366 365 365 364 363 364 364 364 364 364 364 364 363 363 363 362 362 361 360 360 361 361 362 361 362 361 361 362 363 361 362 362 361 362 359 358 361 362 361 362 362 363 363 362 361 361 361 361 360 361 361 363
356 360 361 364 367 368 368 367 367 368 368 368 367 366 366 366 367 367 366 365 365 365 366 366 367 367 367 367 367 367 367 366 366 365 363 364 364 362 362 364 364 365 365 364 364 363 364 363 363 363 363 363 363 362 363 362 362 361 361 362 363 362 361 362 362 362 362 361 360 360 363 362 362 362 363 362 361 361 361 362 362 360 358 361 362
359 361 362 364 368 368 368 368 368 368 367 366 366 366 366 367 367 366 365 365 365 367 367 367 367 368 368 368 367 367 367 366 365 363 364 363 363 362 364 364 364 364 364 363 363 363 363 363 364 364 364 363 363 363 362 362 362 362 362 362 362 363 362 362 362 363 361 358 361 362 362 363 363 361 362 363 362 362 362 362 363 362 357 362 362
358 360 362 365 368 368 368 368 369 367 366 366 367 366 367 367 367 366 365 365 367 368 367 367 367 367 368 367 367 366 366 366 363 363 364 364 364 363 364 364 364 363 364 363 363 363 363 364 364 363 364 364 363 363 363 363 363 363 361 360 360 361 362 362 361 361 360 358 359 360 359 356 355 358 361 363 363 363 363 363 363 362 362 362 362
359 360 362 364 365 368 368 369 369 368 368 368 367 367 367 367 365 365 366 367 367 367 367 368 367 367 368 367 367 367 366 364 363 362 365 364 364 363 363 363 364 363 363 363 362 363 364 364 364 364 364 364 365 364 363 363 364 363 361 360 361 362 362 362 361 361 361 359 357 357 353 351 350 356 361 362 363 363 364 363 362 362 362 363 362
359 361 363 363 364 366 368 369 369 368 368 368 368 368 367 367 366 365 365 366 366 367 368 368 368 367 367 367 367 366 365 362 362 364 364 363 363 365 364 365 363 364 363 363 364 364 364 364 364 365 364 365 365 364 364 363 363 363 363 362 360 360 362 362 361 362 362 361 359 356 353 352 351 353 359 362 363 363 364 363 362 363 363 362 362
360 362 363 363 363 365 368 368 369 368 368 367 367 367 367 367 366 365 365 365 367 367 368 368 368 367 367 366 366 366 363 363 362 365 364 364 363 362 365 366 365 364 364 364 364 364 364 365 365 365 365 365 365 365 365 364 363 363 363 363 361 361 361 361 361 361 361 361 354 352 352 352 351 353 358 361 363 363 363 362 363 363 363 362 362
361 362 362 363 363 366 368 369 369 368 367 367 367 367 367 367 367 367 367 367 367 367 367 367 367 367 366 366 366 366 362 362 365 364 365 364 364 363 363 362 363 363 365 364 365 365 365 365 365 365 366 366 366 366 365 364 364 363 363 364 363 362 362 362 362 362 362 357 352 351 350 351 352 352 357 361 362 362 362 362 362 363 362 362 362
359 360 362 363 363 368 369 369 369 367 367 367 367 367 367 367 367 367 367 367 366 367 366 367 367 366 367 367 367 366 362 362 363 364 365 365 365 364 365 363 363 363 364 365 365 365 365 366 366 366 366 366 366 365 365 365 364 364 364 364 364 363 363 363 362 362 360 352 351 350 350 350 350 351 356 361 362 362 362 363 363 363 363 362 363
358 359 361 361 363 368 369 368 369 368 367 367 367 366 367 367 366 367 366 366 366 366 366 366 367 367 366 366 366 367 364 363 363 364 366 366 366 366 366 364 364 365 365 365 365 366 366 366 366 366 367 366 366 365 365 365 365 365 364 364 364 364 363 362 362 360 356 351 350 349 349 354 351 351 354 360 362 361 362 364 362 362 361 361 362
357 358 360 361 363 369 369 369 368 369 367 367 365 366 366 366 366 366 365 365 366 366 365 366 367 367 367 366 366 367 367 366 364 365 367 367 367 367 367 367 367 367 366 366 366 366 366 366 367 367 367 367 366 366 366 366 366 365 365 363 363 364 363 363 363 357 357 353 351 350 352 357 355 352 356 360 361 361 362 362 364 363 362 362 361
357 358 360 361 368 369 368 369 368 368 367 367 365 365 364 365 364 365 366 365 366 366 366 366 367 367 367 366 367 366 367 367 367 367 368 369 367 367 367 367 367 368 368 367 367 367 367 367 367 367 367 367 367 367 366 366 366 366 366 366 365 363 363 363 359 355 352 350 351 351 351 353 355 354 358 360 360 361 362 363 363 362 362 362 360
357 359 360 362 365 368 368 367 367 366 366 365 365 364 365 364 364 365 365 365 366 366 366 366 368 367 367 367 367 367 367 367 367 368 368 369 368 368 367 368 368 368 369 368 367 368 367 367 367 367 368 368 367 367 367 367 367 367 366 366 366 365 363 363 355 351 352 350 351 352 352 351 352 355 357 360 360 360 360 361 362 362 361 360 360
357 358 359 362 365 370 369 368 367 367 366 365 365 364 365 365 364 365 365 365 366 366 366 367 368 368 367 367 367 368 368 368 368 368 369 368 368 368 368 368 369 369 368 368 369 368 368 368 368 368 368 368 368 368 368 368 368 367 367 367 367 366 364 361 362 354 351 350 352 352 352 354 351 355 355 359 360 360 359 359 361 363 362 360 360
357 358 359 363 365 365 370 369 367 367 366 366 366 365 365 365 365 365 365 365 366 366 367 367 368 367 368 368 368 368 368 368 368 369 369 369 368 368 369 369 370 370 370 369 369 370 369 369 369 368 368 368 368 369 369 368 368 367 367 366 364 362 365 359 359 354 352 353 354 356 354 352 355 356 359 359 360 360 360 359 360 360 360 360 360
359 358 362 362 364 364 364 368 368 367 368 367 366 366 366 365 366 366 366 366 366 367 368 368 368 369 369 369 369 369 369 369 369 369 369 369 370 369 369 370 370 370 371 371 371 371 371 370 370 369 368 369 368 369 369 368 368 367 366 363 364 362 359 361 356 354 353 353 354 356 355 353 357 358 360 360 360 359 360 361 360 360 361 360 360
359 361 360 360 363 362 363 364 365 369 368 367 367 366 366 366 366 366 367 367 367 367 367 368 368 369 369 369 369 370 369 370 369 370 370 371 370 370 371 371 371 371 371 371 371 371 372 371 371 370 369 369 369 369 369 369 369 367 367 364 362 362 363 362 357 355 354 354 355 353 353 353 357 360 360 360 360 359 361 360 359 360 360 361 361
359 359 358 359 361 362 363 363 363 363 362 365 366 366 366 365 365 364 366 366 367 366 367 368 369 370 370 370 370 370 370 370 370 371 371 371 372 371 372 372 371 371 370 370 369 369 368 370 372 371 370 370 370 369 369 369 369 368 367 364 362 363 364 364 357 355 356 359 356 355 355 357 359 360 360 359 359 359 360 359 361 361 361 361 360
357 357 357 359 359 360 361 360 362 360 360 360 359 363 365 365 365 365 366 366 367 367 369 371 370 371 370 370 370 371 371 372 372 372 371 371 372 371 370 371 369 370 369 370 370 369 369 366 366 370 371 370 369 369 369 369 367 365 365 364 364 366 365 362 357 355 355 357 356 355 354 359 360 361 360 360 360 360 359 359 359 361 360 360 360
356 356 356 358 359 359 359 359 359 360 359 359 360 360 365 367 367 367 368 368 369 369 371 371 371 371 371 372 372 370 371 370 373 371 373 373 372 371 372 372 372 372 373 373 372 372 369 365 366 368 368 364 364 365 367 367 366 363 362 362 364 366 362 358 357 355 353 354 357 354 357 360 360 360 361 361 360 360 360 361 360 360 361 361 360
355 355 355 357 358 358 358 359 360 361 361 360 361 361 362 367 368 369 369 370 370 371 371 372 372 371 371 371 372 368 367 367 367 367 372 370 372 372 371 371 370 370 371 370 370 371 372 370 366 365 364 363 363 364 367 367 362 362 362 362 363 358 356 358 357 357 353 353 358 354 358 359 360 360 361 361 360 360 361 361 360 360 359 360 360
351 351 355 357 356 358 358 359 361 362 362 361 362 362 363 367 364 364 367 368 370 371 369 367 372 368 372 370 367 368 368 366 366 370 367 369 368 370 368 368 367 368 368 370 370 371 370 372 368 365 365 363 364 360 359 363 364 363 363 363 361 357 356 357 357 355 355 353 355 357 360 360 361 360 361 361 361 360 360 359 359 359 358 361 361
349 351 353 356 355 358 359 359 361 361 362 361 362 362 362 362 364 364 365 370 369 368 367 368 367 367 366 365 369 366 366 362 362 365 365 368 368 371 370 369 367 369 371 371 372 371 372 373 371 369 366 363 361 356 357 358 358 363 365 361 353 353 355 358 357 354 354 353 355 358 360 361 362 362 362 361 361 361 361 360 358 358 361 362 360
350 351 352 356 355 357 358 359 360 360 360 360 360 360 361 361 362 363 364 363 365 366 366 366 365 365 366 365 365 364 361 360 368 369 368 364 359 364 366 366 368 368 369 366 366 366 369 372 372 369 367 360 356 355 356 356 354 353 353 351 351 352 353 355 357 357 354 356 357 359 360 361 363 362 363 362 361 361 361 360 360 359 361 361 360
351 353 355 355 356 357 358 359 361 359 359 359 360 359 361 361 362 363 363 362 362 363 364 365 366 366 366 365 364 362 358 355 354 354 357 357 355 356 358 358 357 354 362 357 360 363 366 363 364 367 364 360 352 354 352 351 351 351 351 351 352 351 349 352 354 355 354 353 357 361 361 362 363 363 364 361 361 361 361 359 359 359 359 360 360
351 350 352 355 356 357 358 359 361 359 359 358 359 359 363 361 362 362 362 362 363 364 365 365 365 365 365 365 362 358 355 355 355 356 357 357 356 356 357 356 355 355 358 357 357 358 359 361 362 363 362 357 354 353 352 352 350 351 351 353 353 351 349 349 353 354 354 353 355 361 363 363 363 363 363 361 361 360 361 360 359 359 358 358 359
347 348 351 353 356 357 358 359 360 360 359 359 357 359 362 362 362 363 362 361 363 361 359 358 358 357 358 360 357 354 356 358 357 358 357 357 357 356 356 356 354 353 355 354 354 357 357 359 359 359 357 354 353 353 352 352 351 350 351 352 355 354 353 354 356 356 356 355 356 360 361 363 364 364 363 362 360 360 361 360 360 360 359 360 359
345 340 342 345 354 355 356 358 358 358 358 357 354 358 363 362 362 366 365 364 359 352 350 351 359 357 364 363 360 357 356 355 357 357 358 358 358 357 357 357 357 356 356 355 355 357 357 357 357 355 355 355 354 353 350 348 348 349 349 349 351 357 358 358 358 357 357 356 355 358 361 362 363 364 364 363 362 361 362 362 360 360 359 359 359
342 342 344 346 347 348 350 353 356 357 354 353 352 353 359 360 356 355 356 365 350 350 352 354 359 364 364 364 364 359 359 360 360 359 359 358 358 360 360 360 359 358 357 355 358 356 354 354 355 355 353 353 352 349 349 348 348 349 350 351 352 352 353 357 358 358 357 356 355 357 361 363 364 365 364 362 362 362 362 361 361 360 360 360 360
345 346 344 346 347 350 347 344 353 353 351 350 350 349 350 351 351 352 355 358 351 355 359 358 360 360 360 362 365 365 364 361 360 361 358 359 361 361 359 359 360 359 358 356 357 354 352 353 353 353 353 351 350 351 352 349 350 351 351 348 349 351 351 355 358 358 357 356 355 356 361 363 366 366 365 363 362 361 361 362 361 360 359 360 359
348 347 348 351 357 350 350 351 346 356 349 349 350 350 349 348 351 350 352 351 354 357 358 360 358 360 361 363 364 364 368 363 363 361 361 360 359 357 356 357 356 357 358 357 356 354 353 353 353 352 349 348 348 350 352 350 350 351 352 350 347 348 350 354 356 358 357 356 354 353 356 361 365 366 365 365 363 362 360 361 357 357 359 360 357
348 347 348 352 350 350 351 354 352 359 351 352 352 350 349 349 351 351 352 353 357 356 357 359 362 360 362 362 365 367 370 364 364 363 363 361 358 358 357 356 355 356 357 357 358 357 355 354 353 351 350 350 351 351 352 352 352 352 352 351 350 350 352 354 354 356 357 356 354 352 353 358 364 367 365 363 364 362 354 357 354 354 356 356 357
352 350 352 352 350 352 353 355 354 351 349 348 348 348 349 351 351 354 356 359 359 359 358 358 358 358 361 365 367 369 367 365 363 362 362 359 358 358 358 357 354 355 355 356 356 357 353 351 350 351 351 349 347 349 351 349 349 349 348 349 351 351 351 351 355 356 356 354 351 353 355 360 362 367 367 364 363 361 360 360 358 358 357 356 357
354 355 353 354 356 358 357 358 358 353 351 349 349 349 350 352 355 357 360 358 358 358 359 358 360 361 361 364 366 368 364 361 361 360 359 358 358 358 356 354 354 355 355 355 353 355 352 350 350 348 353 351 347 347 347 346 348 349 350 352 352 351 352 354 351 352 352 352 351 350 354 357 361 362 362 365 364 363 361 360 359 359 354 352 356
360 354 355 359 360 363 363 359 361 358 354 352 350 350 353 354 355 357 357 356 357 357 359 358 361 361 363 363 364 365 363 361 359 357 357 356 356 353 352 353 355 355 354 354 353 353 353 352 352 348 349 347 346 349 346 345 346 346 347 351 352 352 354 353 351 352 352 350 350 349 351 354 358 358 361 359 364 363 362 360 352 355 357 355 356
358 357 361 360 361 364 361 360 360 359 356 355 353 353 353 354 355 360 356 357 357 355 357 357 359 362 364 363 362 362 361 359 359 357 355 356 354 352 352 354 355 355 353 352 354 352 352 353 353 350 347 346 348 344 347 347 348 348 348 349 353 356 354 352 351 352 350 350 349 349 348 349 354 356 363 358 357 359 364 362 360 359 359 357 357
360 360 359 359 358 361 361 358 357 358 359 358 357 357 356 355 356 358 358 355 355 356 359 359 361 362 362 361 361 361 360 359 358 357 356 356 353 353 353 354 354 353 351 351 351 354 352 354 350 354 348 345 346 346 347 347 347 348 349 349 349 354 354 353 352 349 353 349 349 347 348 348 354 364 360 358 357 357 363 363 363 361 360 358 358
359 357 356 356 356 358 361 358 356 357 358 359 358 357 357 357 356 355 358 355 354 359 362 363 361 361 361 360 360 361 362 360 358 357 355 357 355 353 352 352 353 352 350 349 350 352 353 350 350 348 351 348 345 345 346 348 350 349 349 349 350 350 352 351 354 359 346 347 348 348 347 348 351 355 357 356 355 355 357 362 363 362 361 359 358
356 354 354 354 355 357 359 358 356 355 355 358 359 359 357 356 356 358 357 356 357 359 362 361 359 361 362 361 362 362 362 360 358 357 355 356 354 353 352 352 352 350 350 348 347 349 344 340 345 349 349 347 348 346 347 349 350 350 349 349 350 351 352 352 356 347 345 346 350 355 351 350 351 350 352 353 354 354 354 353 353 353 354 359 358
356 356 356 354 354 354 357 355 355 354 355 355 356 355 356 355 352 354 356 358 358 361 358 359 360 360 363 361 360 357 358 360 355 355 353 356 351 352 351 351 351 349 348 346 344 342 334 329 330 345 346 346 349 351 348 348 349 343 351 348 349 349 350 356 351 350 352 348 351 354 348 349 349 348 351 352 354 352 353 352 355 352 352 355 359
356 355 354 354 354 353 355 352 353 354 354 353 353 352 351 353 354 353 353 356 356 355 355 354 357 359 361 360 361 359 355 355 357 354 352 354 351 350 350 348 348 347 345 343 339 333 329 328 328 332 338 338 340 343 348 348 341 340 341 342 344 350 357 355 349 349 350 349 349 352 349 348 347 348 349 350 350 350 350 351 351 352 352 351 353
352 352 351 351 352 354 350 351 353 352 353 355 353 354 353 352 351 351 355 353 351 351 350 350 355 360 359 359 362 357 354 354 357 354 353 351 350 349 348 348 345 345 342 336 330 333 324 324 325 324 328 336 334 333 334 345 338 334 333 335 339 340 347 349 347 348 348 348 349 346 350 345 345 347 348 350 348 351 352 351 351 352 350 350 350
351 349 350 351 352 351 350 352 350 351 351 356 354 353 353 355 354 352 351 350 351 353 354 356 356 356 356 356 358 356 355 353 355 357 352 351 350 348 348 347 343 346 331 327 323 322 323 323 323 324 323 326 331 331 324 333 330 334 337 333 326 326 333 333 341 346 347 348 347 349 352 346 345 346 348 348 349 350 350 350 350 350 349 348 348
353 349 349 350 351 352 350 351 352 352 352 357 359 356 358 356 354 354 354 351 348 354 352 353 353 354 352 355 357 355 355 353 354 355 351 350 350 348 345 342 340 343 333 324 322 321 322 322 322 325 325 321 319 319 327 322 325 322 313 322 328 326 313 317 326 336 344 347 347 346 349 345 345 348 345 345 347 347 347 348 350 349 347 347 346
349 348 347 348 355 351 350 352 352 353 355 359 358 359 358 353 352 352 353 351 352 349 349 348 351 354 356 352 353 355 355 353 353 353 355 350 349 348 342 338 336 334 334 328 323 322 321 321 322 323 323 323 319 318 319 323 321 327 318 315 311 312 314 315 324 331 338 342 344 345 349 346 344 346 345 345 346 346 347 347 349 347 347 346 346
349 351 350 351 353 351 353 352 353 353 352 355 357 357 357 350 348 345 344 343 342 344 344 346 348 346 349 352 354 356 355 353 353 353 352 355 348 346 341 335 334 334 332 329 325 324 323 322 323 322 323 323 322 319 316 321 325 324 322 319 316 312 314 318 313 311 324 341 344 346 345 346 343 346 343 345 345 347 351 346 346 347 346 345 346
351 354 353 354 354 354 353 352 351 351 353 352 355 357 353 353 350 346 344 343 342 344 348 350 349 349 351 350 351 353 354 353 354 352 352 354 348 343 337 335 336 334 337 329 326 326 327 327 328 323 324 328 324 321 317 316 318 320 321 319 323 331 323 316 312 315 310 318 334 339 341 343 343 344 345 344 346 346 346 348 346 345 347 349 347
353 353 352 353 355 355 352 350 353 355 353 352 352 354 353 350 350 348 349 346 345 346 349 349 352 352 349 351 351 351 354 353 351 350 351 352 348 338 336 336 336 339 337 331 328 327 326 327 330 326 326 326 325 324 320 316 314 317 322 318 318 319 317 320 319 314 315 315 315 324 330 329 340 342 346 345 346 345 346 344 343 343 346 350 348
350 353 352 352 353 353 353 352 352 353 350 352 352 352 355 351 351 349 349 351 350 350 354 356 352 352 350 350 350 351 352 355 353 351 349 345 346 338 336 335 336 339 341 334 332 327 326 325 325 325 323 323 327 328 324 318 316 315 316 316 316 314 313 315 317 319 313 309 309 312 314 317 327 336 341 345 346 347 347 344 346 346 349 351 347
349 352 354 353 352 351 352 351 351 350 350 350 352 351 351 356 351 349 348 348 351 349 349 348 348 349 349 348 349 350 351 351 352 354 345 342 339 340 337 336 336 344 345 333 332 331 329 327 326 326 324 321 323 323 326 320 317 318 317 317 315 314 312 313 313 313 314 311 309 309 313 313 313 318 339 342 347 348 348 346 347 345 345 347 347
350 353 353 353 354 352 351 349 351 352 354 351 352 352 354 354 353 351 349 348 349 348 347 347 348 347 347 348 350 351 350 349 351 352 345 341 342 346 339 341 345 345 339 336 330 330 330 328 327 324 323 320 320 321 322 322 317 318 318 317 316 314 314 313 312 314 311 309 308 309 311 314 314 313 319 336 347 346 348 346 344 342 342 344 346
Wind_Speed
6 7 5 8 9 12 14 14 14 15 14 13 13 12 12 12 12 12 12 11 11 10 10 11 10 10 9 9 9 9 9 9 8 7 7 7 7 7 7 8 7 7 6 5 5 4 4 3 3 3 3 3 2 3 3 3 3 5 5 6 4 4 4 5 6 6 7 8 8 8 9 12 12 12 12 12 11 10 10 9 9 6 4 6 11
10 7 5 5 10 12 13 15 15 15 14 13 13 12 12 12 12 12 12 12 11 11 11 11 10 10 10 9 9 9 9 8 8 7 7 7 7 6 6 5 6 5 5 4 3 3 3 2 3 3 3 4 4 4 5 4 4 4 4 3 5 5 5 7 8 8 7 8 10 12 10 10 11 13 13 13 11 11 11 10 10 6 2 9 12
9 8 5 7 11 12 13 14 15 15 14 13 13 13 13 12 12 13 12 12 12 11 11 11 10 10 10 9 9 9 9 8 7 7 7 7 5 5 5 4 4 4 3 2 2 2 2 2 3 4 5 5 5 5 5 5 4 4 2 5 6 7 8 8 9 10 10 8 11 12 11 13 12 11 12 12 11 12 12 11 10 11 5 13 12
10 6 5 8 10 12 12 13 13 14 14 13 13 13 13 13 12 13 13 12 12 11 11 11 11 10 10 10 9 8 8 7 7 7 7 6 5 5 4 3 3 3 3 2 2 3 3 4 5 5 5 6 6 6 6 6 6 4 4 5 7 8 8 7 9 9 10 7 10 11 4 4 7 10 11 11 12 12 13 13 12 11 11 14 13
9 7 6 7 8 10 13 14 14 15 14 15 14 14 13 13 13 13 13 12 12 11 11 11 11 11 10 10 9 8 7 7 7 7 7 6 5 4 4 3 4 3 2 3 4 4 5 5 6 6 7 6 7 7 7 6 6 7 6 6 5 7 9 9 9 10 10 9 9 8 4 6 7 10 11 12 11 12 13 14 13 12 14 15 14
10 8 7 8 8 9 13 14 15 16 15 15 15 14 14 13 13 13 12 12 12 11 12 11 11 10 10 9 8 7 7 6 7 7 6 5 4 6 5 5 4 2 3 4 6 6 6 6 7 7 8 8 8 8 8 7 7 9 8 7 7 8 10 10 10 10 10 10 10 3 6 5 5 7 14 12 13 12 13 14 13 13 14 15 15
12 8 8 8 8 9 14 14 15 16 16 16 15 15 14 14 13 13 12 12 12 12 12 11 11 10 9 8 7 6 6 6 6 6 6 5 4 4 6 7 6 5 5 5 6 6 7 7 8 9 9 9 8 8 8 8 8 8 9 9 8 8 10 11 11 11 11 9 3 4 4 5 6 6 12 13 14 13 14 13 13 13 15 15 15
8 8 8 8 7 11 14 15 14 16 16 16 16 15 15 14 14 14 13 13 12 12 12 11 11 10 9 9 7 6 6 6 6 6 5 5 5 5 5 4 5 7 9 8 7 7 8 9 9 9 9 9 9 9 9 8 9 9 8 11 11 11 11 11 11 12 12 4 2 3 4 4 6 6 11 14 15 14 12 12 13 14 16 15 15
9 8 8 7 7 14 14 14 14 16 17 16 16 16 15 15 14 14 13 13 12 12 11 11 10 10 9 8 8 7 7 7 6 6 6 6 6 6 6 7 7 7 8 8 8 8 9 10 10 10 10 10 10 10 10 9 9 9 9 10 11 11 11 12 11 11 7 1 2 3 4 5 6 7 10 14 15 14 13 11 12 15 16 16 14
10 8 7 6 7 15 14 15 15 16 16 16 16 16 16 15 14 14 13 13 12 12 11 11 10 10 10 9 8 7 7 7 7 7 8 8 8 7 8 8 9 9 9 10 10 9 10 10 10 10 10 10 10 10 10 10 10 10 10 10 10 12 11 11 10 9 4 5 4 5 6 9 6 7 10 14 16 16 14 14 8 9 9 15 15
12 9 8 7 8 16 15 16 15 14 16 16 16 16 15 13 12 12 12 12 12 12 11 11 10 10 10 9 9 8 8 8 9 9 9 10 9 9 9 10 10 10 10 10 11 11 11 10 11 10 10 10 10 10 10 11 11 11 11 11 10 11 10 10 9 3 4 5 5 5 7 12 7 6 11 14 16 16 15 15 14 13 14 15 16
11 10 8 7 12 18 17 16 15 15 14 14 14 13 12 12 12 12 13 13 12 12 12 11 11 10 10 10 9 9 9 10 10 11 11 11 11 10 10 10 10 11 11 11 11 11 11 11 11 11 11 11 10 11 11 11 11 12 12 12 12 10 10 10 5 3 4 4 6 6 6 7 7 8 15 15 16 17 17 16 16 16 15 15 15
12 10 9 8 8 16 17 17 15 14 14 14 13 13 14 14 14 13 13 13 13 12 11 11 10 11 10 10 11 11 10 11 11 12 12 12 12 11 11 11 11 11 12 12 13 12 12 12 11 11 11 11 11 11 12 12 12 12 12 12 12 12 9 11 4 4 4 6 6 7 6 6 6 11 14 16 17 17 18 17 17 16 16 15 13
11 9 9 9 7 16 18 16 16 15 16 16 16 15 15 15 14 13 13 13 12 12 11 11 11 11 11 11 11 11 12 12 13 13 13 13 12 12 12 12 13 13 13 14 14 14 13 13 13 12 13 12 12 12 12 12 13 12 12 12 12 12 9 8 6 5 6 6 6 7 7 6 6 12 13 15 17 17 18 18 18 17 16 14 15
12 11 9 8 8 10 17 17 16 16 16 16 16 16 16 15 13 13 13 13 13 12 12 12 12 12 12 12 12 12 12 13 13 13 13 13 13 13 14 15 15 15 15 15 15 15 14 14 14 14 13 13 13 13 12 12 13 12 12 13 12 11 10 5 3 4 5 6 6 7 7 6 10 12 13 15 16 17 18 19 19 18 17 17 16
11 12 10 8 8 8 10 14 17 16 15 15 15 15 15 14 14 14 14 14 14 13 12 12 12 12 12 12 13 13 13 13 13 14 14 14 14 15 16 16 17 16 16 16 16 15 15 14 14 14 14 14 14 13 12 12 13 12 13 10 10 9 13 10 4 4 4 6 6 6 6 6 12 13 14 15 16 17 17 19 18 18 18 19 18
9 10 10 9 9 7 7 8 11 17 15 15 15 15 15 14 14 13 13 14 13 13 12 12 12 13 13 13 14 14 14 14 14 14 15 15 16 16 16 16 16 17 17 17 17 17 16 15 14 14 14 14 14 13 13 12 13 13 12 9 10 10 13 10 6 5 5 6 6 6 6 6 12 15 14 14 16 17 17 18 19 19 18 17 19
9 10 9 9 7 7 5 6 8 8 6 11 14 14 13 13 13 13 13 13 13 13 13 13 13 13 14 14 14 14 14 14 15 16 16 16 17 16 17 17 17 17 17 17 16 17 17 16 16 15 14 14 14 14 13 13 12 13 11 8 10 12 12 12 4 4 6 7 7 6 5 8 13 15 14 13 15 16 18 18 18 19 19 18 19
8 8 7 8 8 7 6 5 5 5 6 5 4 8 14 13 13 13 13 13 13 14 14 14 14 14 14 14 14 15 15 16 16 16 15 16 16 16 15 15 16 18 16 15 14 14 15 16 18 17 14 14 14 14 14 13 12 11 9 10 12 13 14 9 5 5 5 5 6 6 6 11 14 14 14 13 14 16 18 18 18 19 20 19 19
7 8 8 7 7 7 6 6 5 6 5 5 4 4 9 14 13 14 14 14 15 14 15 14 14 14 15 15 15 13 13 11 15 13 15 16 15 13 12 12 13 14 14 14 15 14 13 15 16 15 13 13 15 14 15 13 9 10 12 14 14 13 7 5 7 6 4 5 6 5 7 12 13 14 14 14 14 16 18 17 18 19 20 20 19
7 8 8 8 8 8 9 7 7 8 7 6 5 6 7 13 13 15 16 16 15 15 14 15 15 14 14 14 14 9 5 5 7 7 12 10 12 13 12 11 12 13 15 15 14 14 13 13 12 13 11 12 12 15 14 12 5 11 13 14 15 8 5 4 6 5 5 5 6 6 11 12 13 13 13 14 15 15 17 18 18 18 19 20 20
8 7 8 9 9 9 9 9 7 9 7 6 6 7 7 11 8 8 8 10 12 13 11 9 11 7 12 10 6 5 6 6 7 8 6 6 9 12 11 10 11 13 14 15 14 13 13 14 13 14 12 13 12 6 5 7 11 12 13 14 8 5 5 5 5 5 4 4 5 7 12 13 12 11 12 14 14 15 17 18 19 19 20 18 20
7 7 7 10 10 9 9 10 9 9 9 9 7 7 8 7 7 8 7 9 8 9 8 9 7 6 4 5 6 5 6 5 6 7 6 10 10 13 13 11 12 12 13 13 13 13 13 15 15 14 12 14 6 4 5 4 2 9 11 6 3 4 4 4 4 4 5 5 4 8 11 12 12 11 12 14 14 15 16 16 17 18 19 19 20
10 10 10 9 10 9 11 11 10 11 10 8 7 7 7 7 7 7 7 7 7 7 7 4 3 5 6 6 6 5 6 6 9 12 10 4 5 8 9 10 11 12 14 10 10 11 13 13 14 15 12 4 5 3 5 2 1 1 4 5 4 4 4 4 4 5 5 5 5 10 11 12 11 11 12 13 14 16 16 15 16 17 18 17 18
10 9 7 10 12 11 10 10 10 10 10 8 8 7 8 7 7 7 7 6 6 5 3 4 6 7 7 6 6 5 5 5 4 4 4 4 4 4 4 4 4 6 8 5 5 5 5 5 5 5 3 1 3 4 2 4 2 2 2 4 6 4 4 4 4 5 5 4 5 10 11 11 9 10 11 13 14 15 16 16 18 19 19 17 18
7 8 10 9 12 11 11 10 10 11 10 8 9 9 8 7 7 8 7 5 4 4 5 5 6 7 6 6 5 5 5 4 3 4 4 4 4 4 5 5 5 6 4 5 5 4 4 4 4 4 3 5 1 2 2 3 2 4 4 3 5 5 4 4 5 5 4 4 5 10 10 9 9 10 11 12 14 14 15 15 16 18 19 20 19
7 10 9 8 10 10 10 10 9 9 11 9 7 7 7 8 7 7 6 4 4 5 5 6 6 4 4 4 5 5 4 2 4 4 5 3 4 4 5 5 5 5 4 4 5 5 4 4 3 3 2 2 1 3 4 2 0 1 2 4 4 5 4 5 5 4 4 4 5 10 10 9 10 11 13 13 13 14 15 16 16 16 18 18 20
4 3 2 1 4 9 10 10 9 9 9 9 7 8 6 7 7 2 4 5 5 4 3 4 1 1 1 0 2 2 2 3 4 3 4 2 4 5 5 5 5 5 5 4 4 4 4 3 2 3 2 1 2 2 2 3 3 5 5 5 5 4 3 4 5 4 4 4 4 7 10 10 10 12 13 14 14 15 15 16 17 18 19 20 19
6 4 3 5 3 3 9 10 9 10 8 8 8 7 5 3 2 4 4 4 5 4 3 3 2 1 0 1 0 1 2 4 4 4 2 3 4 5 5 5 5 5 4 4 4 4 4 4 3 4 3 3 3 3 4 3 3 4 5 5 3 3 3 4 4 5 4 4 4 6 10 10 11 13 14 14 15 15 16 16 17 17 18 19 19
3 4 4 4 4 2 5 9 12 10 9 7 6 3 3 4 4 4 4 4 4 5 4 2 1 1 1 1 2 2 3 3 3 3 2 4 5 5 5 4 5 4 4 4 4 3 4 4 3 3 3 2 2 3 3 3 3 3 4 3 3 4 3 4 5 4 4 4 5 5 10 10 11 13 14 14 15 15 17 17 17 17 16 17 19
4 5 5 1 0 4 2 6 8 8 7 5 4 5 5 5 4 4 4 4 3 2 1 2 1 2 0 3 3 3 2 1 2 1 2 4 4 5 5 4 5 5 4 4 4 3 3 3 3 3 2 2 3 2 2 3 4 3 4 3 4 3 5 4 5 5 5 5 4 4 5 10 10 12 14 14 14 16 14 14 8 11 15 16 16
5 3 3 1 3 4 5 6 4 4 5 7 6 5 6 6 5 4 4 3 2 1 1 2 2 1 2 3 2 2 1 2 2 2 2 3 4 4 5 4 5 5 5 5 4 3 3 2 2 2 2 2 3 2 2 3 4 2 2 2 4 5 5 5 5 5 5 4 4 5 4 4 9 13 15 14 14 12 8 10 10 14 14 17 20
2 4 2 3 3 3 6 5 5 6 7 8 7 5 5 5 5 4 4 4 3 2 1 1 0 1 2 3 3 1 2 2 2 2 2 3 4 4 4 4 4 5 5 5 5 1 1 0 2 2 3 2 2 1 0 1 1 1 2 3 3 5 5 4 4 4 4 4 4 4 3 3 4 10 13 12 12 12 12 13 14 14 15 17 18
3 3 4 4 2 2 4 4 5 6 6 6 5 4 3 1 1 3 4 4 3 3 2 0 1 0 1 2 2 2 2 2 2 3 2 3 3 3 3 4 4 4 4 5 4 3 1 0 1 2 3 3 2 2 1 1 2 2 2 3 4 5 4 3 2 3 4 3 3 2 2 1 3 4 5 12 12 11 12 12 9 10 7 9 16
3 3 5 3 4 3 3 5 4 5 5 4 4 3 1 1 3 3 3 2 3 3 2 1 1 1 0 2 2 2 2 2 2 2 3 2 3 3 3 4 4 4 4 4 3 3 2 2 2 3 3 3 2 3 2 2 2 1 2 2 3 3 3 3 2 1 2 2 2 1 0 2 3 3 4 3 9 13 13 13 10 15 15 17 18
3 3 4 4 6 4 4 6 4 4 3 3 3 3 3 2 3 3 2 2 2 2 1 0 0 0 1 0 1 2 2 3 3 2 3 3 2 3 3 4 4 4 4 4 3 4 3 4 3 2 4 4 3 2 1 2 2 2 2 2 2 2 3 3 1 1 2 3 1 1 1 3 2 3 4 4 4 6 14 14 14 15 16 17 17
4 3 4 4 4 4 4 5 5 5 3 3 2 2 2 3 2 2 3 2 2 2 2 1 1 1 1 1 0 1 2 3 3 2 2 2 3 3 4 4 3 3 4 5 5 5 3 3 4 4 1 2 3 4 3 2 2 2 2 2 2 2 2 2 1 3 2 2 2 1 2 1 0 4 4 5 4 5 9 14 14 14 15 15 16
4 4 4 5 4 3 4 4 3 2 2 3 3 2 2 1 1 2 2 2 1 1 1 2 2 2 2 1 1 2 2 3 3 2 2 2 2 3 4 4 3 4 4 5 5 5 5 3 5 4 3 3 4 3 4 4 3 3 3 2 3 2 3 2 2 2 3 3 2 3 3 2 3 4 5 5 5 5 5 10 14 14 14 15 17
4 4 4 3 3 3 3 3 2 2 2 2 2 2 2 2 2 2 2 1 1 1 1 3 2 1 1 1 1 2 2 2 2 2 3 3 3 4 3 4 5 5 5 6 6 6 6 6 5 5 4 3 3 3 3 3 4 4 3 3 2 2 2 1 1 2 3 2 2 3 3 4 3 3 3 3 4 4 5 4 4 4 7 13 14
4 3 3 2 3 2 3 3 2 1 2 2 3 3 2 2 2 2 2 2 2 3 4 3 1 1 1 1 1 1 1 0 2 2 2 2 3 3 4 4 5 5 6 6 5 5 6 7 7 5 6 5 3 3 2 2 2 3 3 3 3 2 0 0 1 2 1 1 3 0 3 3 2 1 1 2 3 3 4 4 4 5 5 7 13
3 3 3 2 1 2 2 2 1 2 2 2 2 2 2 2 2 1 1 0 2 2 3 2 2 1 0 1 1 1 0 1 1 2 3 3 2 3 4 5 5 5 5 4 3 4 4 4 5 3 5 5 4 6 4 1 2 3 2 3 3 3 2 1 0 1 2 2 1 1 1 1 1 1 2 2 2 3 3 4 5 5 5 5 6
1 2 2 2 1 1 2 2 1 2 2 2 1 1 1 1 2 2 2 2 2 2 2 1 1 1 1 1 1 1 1 1 1 2 3 3 4 5 5 5 5 4 3 3 4 5 6 7 6 7 3 3 3 4 6 1 2 0 1 2 3 4 2 2 2 2 1 2 2 2 1 1 1 3 2 2 3 3 4 4 4 4 4 4 4
2 1 1 1 1 0 1 1 1 2 1 1 2 1 1 2 3 2 3 1 0 1 0 0 1 1 1 1 0 0 1 2 2 2 3 3 4 5 6 6 4 3 5 6 5 7 6 6 6 5 6 3 2 1 6 4 1 0 0 1 2 3 3 4 1 2 2 2 1 0 0 0 2 1 2 2 3 3 2 3 4 3 3 4 4
3 2 2 2 1 1 0 1 0 2 2 0 2 2 4 4 4 3 2 2 2 1 0 1 1 1 1 2 1 0 1 3 3 2 3 3 4 5 5 6 6 3 4 5 5 6 6 7 7 7 4 7 7 6 5 5 5 4 3 0 1 1 2 1 2 4 1 1 2 2 1 2 2 0 1 3 2 1 2 3 3 3 2 3 2
2 2 2 2 3 4 2 2 1 2 1 2 3 3 4 4 3 2 2 2 2 2 2 2 2 1 0 0 1 1 2 2 2 3 3 3 4 5 5 4 4 4 4 5 5 5 4 4 6 7 7 4 7 4 5 5 4 4 3 2 3 3 1 3 2 2 3 1 1 2 2 2 3 1 0 0 1 1 0 2 3 3 1 1 1
2 3 2 2 2 2 3 2 1 2 2 2 3 5 4 4 2 2 1 3 3 2 2 3 1 1 2 0 2 2 2 2 2 2 3 4 5 4 4 4 5 5 5 3 3 5 6 6 4 5 7 5 3 6 8 7 2 4 4 1 3 1 3 2 2 1 4 1 1 2 2 3 3 2 0 0 1 0 0 1 3 4 2 1 0
3 1 2 2 3 3 3 2 2 1 1 2 2 3 4 4 3 2 2 2 3 1 1 1 2 1 1 3 3 2 1 1 1 2 3 4 4 3 4 4 4 4 3 4 4 4 4 4 4 6 4 5 6 7 6 6 6 7 6 3 1 0 1 1 1 1 3 4 2 2 4 4 4 3 2 2 1 0 1 2 3 3 2 1 0
2 2 2 1 3 3 3 2 1 1 1 2 2 2 2 2 3 2 2 2 2 2 2 2 1 2 3 3 2 2 1 0 1 2 4 3 3 3 4 4 4 4 4 4 3 2 4 4 4 4 5 5 5 6 4 5 5 6 6 8 7 7 6 3 1 1 2 1 5 5 3 6 5 3 3 3 3 2 0 2 3 3 3 2 1
0 2 2 2 2 2 2 2 2 2 2 2 2 1 1 2 3 3 2 1 1 2 0 0 3 2 3 2 2 1 1 1 1 3 3 3 2 3 3 4 4 4 4 4 3 3 3 4 6 7 6 6 5 4 4 6 6 5 7 8 6 6 4 4 5 5 5 3 2 2 5 5 4 2 2 1 2 2 1 1 3 2 3 2 3
2 1 1 2 2 1 2 2 2 2 2 2 2 1 1 1 3 2 2 1 1 2 2 3 2 2 3 2 1 1 1 2 2 4 2 2 3 3 3 3 4 4 3 4 4 4 4 4 4 5 6 6 5 6 4 5 5 5 4 4 6 6 7 6 6 5 3 4 2 3 3 5 8 6 2 3 1 3 2 1 2 2 2 2 3
1 1 1 2 1 1 1 1 2 2 2 2 1 1 1 2 3 3 2 2 2 2 3 2 2 3 3 1 1 0 1 1 3 3 1 1 2 1 2 2 3 3 4 4 4 5 4 4 4 5 6 6 6 6 7 5 5 7 7 7 6 4 2 3 3 3 3 3 4 5 3 3 2 5 6 2 1 1 2 0 2 2 2 1 2
Wind_Direction
195 175 176 177 160 156 150 147 144 138 138 139 137 136 138 139 138 139 140 142 139 137 140 140 139 140 148 152 149 149 151 152 154 149 146 148 145 144 142 143 146 143 145 150 155 158 145 162 205 227 224 215 210 219 241 242 227 225 232 235 233 231 244 248 241 252 244 259 265 267 262 249 246 242 240 239 240 243 243 237 235 232 207 185 198
169 174 174 171 162 152 149 147 146 139 139 140 141 140 142 144 144 144 146 144 145 147 148 148 149 150 155 157 158 159 158 161 156 153 152 153 151 151 153 148 147 151 154 154 177 173 180 196 232 243 243 240 237 240 238 232 246 244 240 244 230 243 244 243 247 243 245 238 249 258 264 263 253 248 242 242 244 247 242 234 222 221 165 196 200
148 158 164 162 152 148 149 148 145 137 138 141 144 146 148 148 147 148 148 150 151 152 153 155 156 158 160 165 167 167 167 162 162 158 159 157 158 161 160 164 168 164 167 167 193 227 216 253 271 263 263 258 255 250 250 249 246 233 242 255 255 246 247 251 251 249 248 244 250 253 260 268 262 252 252 244 233 235 241 233 223 214 180 198 203
145 156 153 147 145 147 150 145 142 139 141 145 147 150 150 151 150 151 154 155 155 156 158 161 163 163 167 171 176 175 171 167 164 169 168 166 167 170 183 188 194 193 195 202 232 240 255 246 250 258 261 258 253 256 249 242 241 224 220 239 248 253 247 247 250 259 260 255 262 263 275 280 277 266 253 250 238 235 231 229 222 211 187 202 196
141 150 149 144 143 149 150 149 145 144 146 148 150 151 152 153 155 157 159 161 161 163 166 168 170 169 172 179 181 180 177 173 176 173 178 177 177 186 199 219 219 214 210 228 247 253 256 264 264 265 263 259 259 256 253 242 230 232 223 225 240 252 251 249 253 257 269 269 251 259 254 248 260 267 253 244 239 237 232 227 220 214 196 200 194
148 153 152 147 147 151 154 157 149 151 152 151 151 153 154 156 160 162 166 168 168 171 173 174 175 173 177 182 186 187 185 186 183 181 186 190 196 196 217 220 228 219 230 229 239 248 260 262 266 265 264 262 261 258 256 246 235 232 223 205 227 247 251 254 260 258 255 257 269 260 232 232 236 261 259 248 237 231 233 223 217 214 199 199 202
147 154 155 153 154 157 157 154 153 152 154 154 154 155 157 161 163 166 169 172 174 176 177 178 178 177 181 185 191 195 199 199 195 196 197 197 208 219 219 221 225 232 232 243 253 257 258 260 258 255 252 253 253 255 256 249 249 241 223 215 214 230 246 251 257 262 259 259 196 212 208 228 234 242 253 249 241 232 231 219 215 211 199 197 202
147 155 158 160 159 162 160 159 156 155 157 158 159 161 162 164 166 169 171 176 179 179 181 181 180 181 184 190 195 201 210 209 215 213 215 214 219 224 242 253 233 234 232 249 249 249 251 255 258 264 263 257 255 253 251 248 248 250 229 221 226 238 239 246 254 263 265 267 204 199 231 230 234 234 245 243 239 233 224 216 214 213 200 196 196
155 159 162 163 167 165 164 163 157 160 162 163 164 165 167 170 172 174 177 177 181 183 183 185 187 188 191 196 200 209 215 220 225 229 229 233 230 235 242 243 246 249 251 252 253 250 249 252 255 256 256 254 250 248 246 248 249 247 245 227 227 226 238 244 249 253 267 272 221 222 224 230 235 239 242 240 236 229 216 208 211 208 197 197 197
158 160 163 165 168 169 168 164 166 166 166 168 170 171 173 176 178 178 178 183 184 187 188 190 194 197 200 201 210 212 220 228 233 237 239 239 241 242 241 245 246 248 249 252 251 250 249 248 249 251 252 254 253 250 251 252 251 251 252 255 244 236 243 252 256 259 234 249 240 227 223 229 228 236 237 236 236 227 219 208 200 211 205 203 199
157 160 161 167 174 172 173 170 172 171 172 174 175 178 179 180 183 181 182 188 192 192 192 197 200 205 206 212 216 220 225 231 237 241 242 243 244 247 247 249 251 253 254 255 255 254 252 249 249 249 249 251 252 252 252 251 252 253 257 256 256 246 251 249 252 240 218 224 243 243 241 236 230 225 234 234 234 227 220 214 209 208 206 207 202
157 160 164 168 174 174 175 174 175 174 179 181 179 182 183 184 187 188 191 195 197 196 200 202 207 209 212 218 223 228 232 237 239 242 244 246 248 249 254 258 261 262 264 265 264 262 261 259 256 256 254 253 252 252 253 252 249 252 254 256 255 257 242 245 242 207 212 224 239 240 237 233 229 226 227 229 231 225 219 217 214 212 208 208 206
155 161 164 169 173 175 176 176 177 179 183 185 185 187 188 191 191 193 196 199 203 203 206 210 213 217 220 223 228 232 237 241 245 247 248 251 252 256 259 265 268 269 268 269 269 269 268 267 266 263 260 258 256 253 252 252 253 253 255 255 259 258 248 230 217 223 208 211 232 242 233 229 224 234 236 231 230 224 219 216 212 211 210 207 202
151 160 166 167 169 178 179 179 180 184 187 189 189 191 194 194 195 197 200 204 207 210 213 215 221 224 226 230 233 236 240 244 248 252 255 258 262 264 265 266 266 265 264 263 264 264 266 267 266 266 263 260 258 256 254 253 254 256 256 258 260 264 258 251 225 198 212 226 233 231 232 224 223 228 233 232 231 225 220 214 211 208 204 204 204
154 159 164 167 171 178 182 184 186 189 191 193 193 194 197 198 199 201 205 207 212 214 219 222 227 230 234 237 240 243 246 249 252 255 260 265 267 267 264 260 257 255 254 254 254 256 258 261 263 264 263 262 262 261 259 258 260 260 259 257 261 273 250 223 221 191 210 229 235 227 222 219 229 225 229 232 230 226 220 212 211 208 202 205 208
152 159 162 167 176 175 184 190 190 192 196 198 198 198 200 201 202 203 207 212 216 218 223 228 232 237 240 243 247 249 251 254 257 260 263 263 262 260 258 258 257 259 258 258 257 257 257 258 261 262 263 264 263 263 262 263 265 266 267 273 276 286 298 279 235 200 209 228 238 232 222 223 230 225 229 231 227 220 219 212 209 206 202 201 207
146 154 162 170 176 178 184 194 194 196 199 201 202 201 202 205 206 209 214 217 221 226 230 235 238 242 244 248 251 254 257 260 262 262 261 259 259 260 263 265 266 268 271 271 269 266 264 263 263 262 264 266 266 266 266 266 268 269 275 281 292 281 277 279 231 200 204 220 228 226 221 222 229 224 227 228 224 217 216 213 207 205 200 201 205
150 156 166 171 174 180 183 194 197 199 201 204 206 206 208 209 213 217 220 225 229 231 234 238 241 246 249 252 255 259 261 261 259 257 259 263 266 269 270 269 270 271 273 279 285 285 282 275 266 264 264 264 265 265 266 268 268 269 275 288 275 280 279 280 267 225 212 220 226 226 219 216 219 224 228 227 226 219 215 213 207 201 200 200 205
151 162 165 169 177 180 182 192 195 197 195 204 206 213 213 217 220 224 227 230 232 234 236 239 244 248 252 256 259 259 259 258 261 265 268 271 274 276 278 285 288 284 280 276 272 274 279 286 284 274 264 264 265 266 267 268 273 289 284 271 271 269 268 277 259 219 208 220 230 230 231 225 222 225 227 224 224 223 215 214 211 206 203 201 202
159 162 170 177 177 182 184 193 194 198 195 203 208 220 226 221 224 227 230 232 235 238 241 245 248 250 252 253 254 255 259 264 268 272 275 277 279 282 279 272 271 275 273 267 266 263 262 266 274 280 286 295 287 286 272 263 265 271 279 276 274 275 280 232 254 231 208 220 227 235 236 231 226 227 226 223 221 219 214 210 211 210 205 201 202
163 173 175 175 181 185 188 190 194 198 196 198 206 214 224 226 224 227 229 232 235 239 242 246 247 248 248 250 254 263 266 268 271 270 274 278 276 276 279 279 277 279 279 277 273 269 265 262 270 277 273 262 274 281 285 273 266 269 266 268 272 281 270 258 235 221 209 209 222 228 235 233 229 226 227 228 225 216 213 210 207 206 210 202 202
170 176 183 178 180 191 188 191 192 197 194 195 207 213 219 225 224 225 228 230 235 237 240 238 241 242 249 255 262 257 258 255 257 260 262 265 268 266 266 268 271 270 271 275 276 276 273 264 253 257 253 271 260 267 276 287 253 245 254 260 265 246 248 253 239 228 216 210 216 227 233 233 231 223 225 228 227 218 214 209 209 205 208 204 203
173 176 185 184 189 187 184 190 193 193 197 200 209 208 214 220 230 228 230 232 231 235 235 237 241 250 256 253 250 252 252 254 255 254 255 261 264 265 267 265 268 268 271 275 275 280 280 273 264 255 242 247 240 223 235 204 219 253 258 264 247 254 253 238 238 235 232 220 225 230 233 235 231 222 221 226 223 219 216 214 208 206 207 207 202
179 181 184 189 189 189 188 190 190 192 196 201 207 208 208 212 220 224 224 227 230 232 240 260 277 259 245 240 243 233 240 251 262 271 277 304 299 292 277 267 270 282 284 287 291 290 287 285 276 269 265 214 221 206 249 249 195 47 359 316 268 226 229 234 232 238 236 232 234 242 236 235 230 224 221 220 219 213 216 211 211 211 210 208 205
186 179 180 190 192 191 189 191 189 194 201 201 204 209 207 207 214 222 223 222 228 234 247 246 241 240 240 233 228 228 235 242 269 284 282 276 287 281 278 278 280 276 283 287 288 287 294 284 292 291 268 166 94 234 152 237 231 131 173 234 253 239 223 231 236 239 242 234 242 239 236 232 227 229 226 218 219 216 217 211 204 211 211 209 211
173 177 193 192 192 193 192 191 190 195 203 201 203 208 202 206 209 215 217 219 219 207 212 228 232 237 235 222 219 233 246 264 281 274 271 261 276 279 277 271 273 277 292 291 289 288 289 290 292 287 321 41 169 174 240 242 206 187 201 226 238 237 237 241 241 233 235 234 243 239 234 225 220 223 228 224 223 225 220 216 204 207 212 206 212
183 195 191 197 191 194 194 189 194 199 206 209 209 204 203 202 205 209 203 205 189 203 214 224 233 248 246 211 202 224 252 247 264 260 267 269 269 275 278 276 276 283 285 273 282 283 282 293 297 312 23 112 154 201 196 202 38 343 282 252 246 235 241 247 241 233 231 227 240 243 239 233 221 215 220 223 226 226 225 218 212 209 214 209 206
152 73 78 214 217 207 199 190 196 197 207 209 202 206 204 194 211 183 183 189 183 186 216 244 262 297 344 322 204 199 224 246 256 259 263 272 283 293 291 287 281 279 277 255 271 282 289 282 297 309 318 292 228 143 124 182 168 232 238 242 246 252 253 250 244 237 237 235 234 246 239 231 227 216 220 222 224 224 225 223 217 217 215 216 213
119 132 132 99 123 203 203 199 201 204 206 202 201 203 195 172 112 146 159 148 152 173 200 209 206 195 343 308 278 234 247 245 256 258 284 293 297 297 292 288 283 277 265 265 243 260 288 304 306 307 307 261 209 220 222 234 197 211 226 238 243 240 258 260 249 241 238 238 242 247 246 237 226 220 221 223 224 225 224 225 221 217 218 219 217
117 152 111 134 185 140 145 177 195 202 201 195 198 108 103 123 128 134 150 146 167 188 190 153 152 101 24 316 291 260 248 251 248 287 313 306 306 303 302 300 293 282 254 261 239 248 279 305 299 292 281 289 274 263 258 246 218 222 200 215 252 270 260 256 250 238 226 228 237 240 244 240 225 219 222 224 224 227 226 224 222 221 221 223 223
90 72 92 100 248 95 94 184 184 189 191 182 92 113 113 126 145 145 151 147 164 157 105 85 28 34 257 250 245 244 254 20 360 343 318 300 300 304 311 309 315 321 315 293 285 255 257 262 270 277 282 287 279 285 288 271 253 239 223 201 248 261 265 259 249 235 222 224 224 230 240 240 230 225 226 225 227 231 233 230 245 253 230 223 228
97 96 96 87 29 54 61 42 78 115 117 109 123 128 149 153 157 160 143 133 130 119 82 103 80 360 317 311 289 286 35 38 7 323 304 309 309 314 309 321 328 327 335 327 309 251 237 238 274 303 285 263 292 323 294 283 298 256 210 202 221 227 242 249 250 238 225 226 219 225 231 235 232 225 228 228 228 235 237 248 217 227 239 226 226
132 124 116 71 58 43 63 56 68 88 110 124 134 154 163 162 160 153 143 147 165 141 91 62 111 10 337 305 305 351 37 12 329 326 320 306 303 312 312 326 329 334 337 344 348 18 86 359 338 327 296 281 304 303 355 282 267 192 177 223 237 240 243 248 255 211 213 224 223 224 219 228 223 227 228 235 236 234 233 244 233 226 228 231 227
146 135 101 75 44 8 82 80 85 93 106 123 129 149 188 180 88 116 139 141 143 115 126 143 72 345 306 315 340 12 8 341 343 323 317 319 315 304 323 331 336 345 350 0 13 19 86 37 325 329 327 343 322 299 295 235 249 253 209 207 212 234 234 235 244 211 220 205 189 157 186 200 228 229 216 230 227 230 238 238 245 242 242 253 236
109 102 100 111 69 33 67 78 93 101 103 111 139 157 153 91 128 143 130 127 137 148 135 146 164 230 272 350 5 6 331 322 315 317 330 318 312 327 341 333 337 355 359 0 20 12 18 3 338 354 330 330 315 315 316 302 274 248 249 239 228 237 247 255 247 152 119 116 132 119 122 180 204 214 232 206 226 225 227 235 212 247 224 225 233
121 115 96 80 72 62 83 97 88 97 112 133 150 154 151 168 160 148 128 138 119 95 102 135 223 283 247 26 31 330 313 307 307 316 327 326 316 340 331 342 349 355 358 353 2 8 350 347 336 346 356 344 2 329 293 282 280 284 282 285 269 252 237 242 242 165 144 158 162 146 202 220 199 203 212 215 222 232 234 234 230 231 241 241 243
132 99 93 80 70 61 70 77 87 104 117 121 138 144 153 172 163 137 143 100 88 116 160 150 201 214 114 136 256 272 280 306 308 315 329 332 341 355 344 340 347 1 2 355 355 344 1 352 341 335 19 320 345 339 334 325 320 314 323 316 289 266 245 233 170 172 167 156 206 231 259 306 309 237 210 206 220 229 241 242 232 234 242 246 246
78 92 88 94 93 76 88 94 75 74 106 137 154 155 160 141 109 101 101 80 154 164 147 157 122 125 141 143 258 268 294 300 309 330 1 345 353 355 330 338 345 1 5 5 349 341 347 9 340 326 339 333 330 335 329 330 324 319 317 296 290 289 263 263 203 167 167 168 213 222 244 264 272 238 202 200 206 212 228 244 244 244 247 248 245
124 123 114 120 113 97 97 91 96 81 73 81 94 73 64 47 51 68 77 33 3 358 60 102 122 95 89 228 255 284 290 301 323 350 20 0 358 345 340 336 355 360 7 7 3 360 5 7 358 327 329 312 265 288 276 313 318 319 318 321 301 276 283 258 138 160 192 170 216 224 200 225 226 213 182 195 202 205 226 235 250 259 260 261 253
129 122 120 124 126 110 100 78 75 92 103 89 90 88 79 74 67 38 60 77 27 72 58 59 75 122 175 213 276 302 290 298 359 14 22 16 2 340 338 346 7 12 23 27 11 9 7 7 6 349 340 336 322 296 303 326 329 335 337 355 348 358 306 47 133 240 244 196 244 222 234 268 235 248 198 193 192 209 227 241 248 251 257 266 266
107 112 111 112 139 145 132 103 92 48 54 71 81 107 100 94 64 44 55 54 125 81 62 24 46 356 328 307 308 288 317 360 33 47 35 12 4 344 354 359 17 20 39 39 27 31 27 25 6 357 356 357 339 358 331 96 28 339 351 5 347 338 329 55 303 312 271 221 241 228 301 133 251 240 243 183 187 212 220 239 247 253 257 262 270
52 74 89 116 94 68 109 115 81 77 81 104 114 106 155 166 144 122 97 64 47 58 64 1 356 306 318 349 306 261 57 45 86 56 38 30 11 360 359 1 21 21 32 31 35 39 29 26 18 9 358 359 344 8 348 356 3 200 326 328 340 329 320 344 338 300 304 281 221 180 162 131 226 236 199 165 209 221 222 239 253 259 263 263 264
120 115 114 129 116 68 77 86 97 105 108 147 128 136 91 80 101 120 127 93 3 6 135 289 293 325 309 336 296 249 29 53 43 49 34 17 18 14 0 357 34 16 49 29 29 33 31 32 32 30 346 352 342 353 25 21 275 316 191 71 350 12 328 357 320 301 301 304 51 18 144 185 238 249 189 156 218 245 263 255 261 269 279 278 267
155 153 172 177 168 178 143 133 167 155 155 207 124 129 92 84 90 109 99 134 142 142 18 338 2 13 350 329 304 87 68 56 45 35 31 20 24 22 14 24 29 42 75 56 33 35 27 26 29 27 19 19 4 342 19 33 57 42 8 40 239 120 358 312 304 289 332 341 13 332 202 227 264 308 54 182 231 295 261 262 267 270 278 277 284
228 216 179 174 181 172 185 170 177 174 164 106 86 98 95 71 71 77 93 83 51 21 38 16 15 314 341 129 214 87 67 54 41 41 35 22 26 29 35 26 36 48 74 60 38 33 37 40 40 41 39 30 7 344 351 22 33 45 85 33 356 18 247 251 319 293 358 34 324 311 233 236 266 278 106 117 26 27 224 263 281 294 300 279 289
264 240 190 185 197 158 151 143 109 93 84 93 94 126 136 153 151 138 108 89 66 55 113 143 154 129 176 232 16 41 73 59 39 39 32 33 33 34 40 43 42 44 60 70 47 29 26 31 31 55 36 27 36 15 4 358 8 57 65 103 171 209 296 290 74 319 324 19 293 269 305 298 295 283 82 88 66 356 4 319 304 297 318 327 333
257 208 172 186 177 153 149 143 150 141 100 84 85 104 125 154 155 157 151 146 149 246 236 182 179 234 191 102 77 53 56 83 8 37 38 39 48 36 53 51 45 54 59 63 47 33 22 17 14 41 45 32 32 30 15 334 349 18 12 17 22 326 167 35 350 89 5 320 345 315 304 293 267 274 220 156 186 78 349 305 315 313 324 344 333
316 134 151 169 169 160 148 146 183 146 154 122 110 136 152 145 122 135 138 144 166 199 188 185 178 162 120 88 53 29 4 39 77 37 45 47 66 45 52 48 46 39 50 48 54 37 45 14 22 30 40 44 44 37 359 9 44 335 352 10 10 21 36 15 56 128 138 52 345 330 327 313 290 247 239 149 183 177 11 319 316 326 339 334 325
148 154 196 161 166 149 142 154 185 175 178 153 150 176 148 153 129 129 102 147 159 175 186 62 134 131 95 61 78 35 7 353 8 32 51 92 85 80 62 48 42 31 48 44 59 53 48 42 18 21 21 21 27 29 39 4 17 6 359 5 8 18 9 41 38 66 69 69 326 331 319 318 337 336 329 64 165 99 92 333 288 301 316 323 328
212 212 188 148 167 169 159 160 214 211 209 173 168 151 183 113 121 128 127 118 89 80 77 116 125 109 106 95 80 42 6 349 11 47 69 98 93 78 65 53 32 19 30 24 37 50 37 35 26 19 23 24 10 25 35 7 26 20 42 20 24 353 16 15 20 25 34 80 106 316 323 350 16 320 354 12 1 69 66 317 308 328 337 338 317
138 175 171 164 173 173 200 207 246 228 205 209 145 151 178 141 139 146 145 160 135 102 106 119 107 97 115 103 81 38 341 336 11 40 102 156 101 77 74 56 35 32 24 23 54 60 52 53 29 25 21 26 8 15 16 21 31 32 25 32 30 35 36 50 2 37 80 26 8 351 335 337 12 6 340 343 95 103 119 70 284 282 292 309 304